Torna al catalogo

BRISAT

AttivoComunicazioniGEO
NORAD 41591·PAYLOAD·🇮🇩 Indonesia

Lanciato Jun 18, 2016 da Guiana Space Centre

Loading…

TLE

AggiornatoSource: Space-Track

Epoca: Sep 14, 2026, 12:44 UTC

1 41591U 16039A   26257.53075176 -.00000204  00000-0  00000-0 0  9992
2 41591   0.0158 238.8797 0002053 286.7709 169.4309  1.00271884 37507

Traccia BRISAT in tempo reale con AllMySat

Download on the App Store